SCP
0 0 0 0 0 0 0 0 0 0 0 0 -0 0 0 0 0 1 1 0 0 0 -0 0 0 0 0 0 0 0 0 0 0 0 0 0 0 0 0 0 0 0 0 -0
0 0 0 0 0 -0 0 -0 0 0 -0 0 0 0 0 0 0 0 0 0 0 -0 -0 -0 0 0 0 0 0 0 0 0 0 0 0 0 0 0 0 0 0 0 0 0
0 0 0 0 0 0 0 0 0 -0 0 0 0 0 0 0 0 0 0 0 -0 -0 -0 0 0 0 0 0 0 0 0 0 0 0 0 0 0 0 0 0 0 0 0 0
0 0 0 0 0 0 0 0 0 0 0 0 0 0 0 0 0 0 0 0 0 0 0 0 0 0 0 0 0 0 0 0 0 0 0 0 0 0 0 0 0 0 0 0
0 0 0 0 0 0 0 1 0 0 0 0 0 0 0 0 0 0 0 0 0 0 0 0 0 0 0 0 0 0 0 0 0 0 0 0 0 -0 0 0 0 0 0 0
0 0 0 0 1 1 0 0 0 0 0 0 0 0 0 0 0 0 0 0 0 0 0 0 0 0 0 0 0 0 0 0 0 0 0 -0 0 0 0 0 0 0 0 0
0 0 0 0 0 0 0 0 0 1 1 1 1 0 0 0 0 0 0 0 0 0 0 0 0 0 0 0 0 0 0 0 0 0 0 0 0 0 0 0 0 0 0 0
0 0 0 0 0 0 0 0 0 0 0 0 0 0 0 0 0 0 0 0 0 0 0 0 0 0 0 0 0 0 0 0 0 0 0 0 0 0 0 0 0 0 0 0
0 0 0 0 1 1 0 0 0 0 0 0 0 0 0 0 0 0 0 0 0 0 0 0 0 0 0 0 0 0 0 0 0 0 0 0 0 0 0 0 0 0 0 0
0 0 0 0 0 0 0 0 0 0 0 0 0 0 0 0 0 0 0 0 0 0 0 0 0 0 0 0 0 0 0 0 0 0 0 0 0 0 0 0 0 0 0 0
0 0 0 0 0 0 0 0 0 0 0 0 0 0 0 0 0 0 0 0 0 0 0 0 0 0 0 0 0 0 0 0 0 0 0 0 0 0 0 0 0 0 0 0
0 0 0 0 0 0 0 0 0 0 0 0 0 0 0 0 0 0 0 0 0 0 0 0 0 0 0 0 0 0 0 0 0 0 0 0 0 0 0 0 0 0 0 0
0 0 0 0 0 0 0 0 0 0 0 0 0 0 0 0 0 0 0 0 0 0 0 0 0 0 0 0 0 0 0 0 0 0 0 0 0 0 0 0 0 0 0 0
0 0 0 0 0 0 0 0 0 0 0 0 0 0 0 0 0 0 0 0 0 0 0 0 0 0 0 0 0 0 0 0 0 -0 -0 -0 0 0 0 0 0 0 0 0
0 0 0 0 0 0 0 0 0 0 0 0 0 0 0 0 0 0 0 0 0 0 0 0 0 0 0 0 0 -0 -0 -0 -0 -0 -0 -0 -0 -0 -0 0 0 0 0 0
0 0 0 0 0 0 0 0 0 0 0 0 0 0 0 0 0 0 0 0 0 0 0 0 0 -0 -0 -0 -0 -0 -0 -0 -0 -0 -0 0 -0 -0 0 0 0 0 0 0
0 0 0 0 0 0 0 0 0 0 0 0 0 0 0 0 0 0 0 0 0 0 -0 -0 -0 -0 -0 -0 -0 -0 -0 -0 0 -0 0 0 0 0 0 0 0 0 0 0
0 0 0 0 0 0 0 0 0 0 0 0 0 0 0 0 0 0 0 0 0 0 -0 -0 -0 -0 -0 -0 -0 -0 0 0 0 0 0 0 0 0 0 0 0 0 0 0
0 0 0 0 0 0 0 0 0 0 0 0 0 0 0 0 0 0 0 0 0 0 -0 -0 0 0 -0 -0 0 -0 -0 0 0 0 0 0 0 0 0 0 0 0 0 0
0 0 0 0 0 0 0 0 0 0 0 0 0 0 0 0 0 0 0 0 0 -0 0 0 0 0 0 -0 0 0 0 0 0 0 0 0 0 0 0 0 0 0 0 0
0 0 0 0 0 0 0 0 0 0 0 0 0 0 0 0 0 0 0 0 0 0 0 0 0 0 0 0 0 0 0 0 0 0 0 0 0 0 0 0 0 0 0 0
0 0 0 0 0 0 0 0 0 0 0 0 0 0 0 0 0 0 0 0 0 0 0 0 0 0 0 0 0 0 0 0 0 0 0 0 0 0 0 0 0 0 0 0
0 0 0 0 0 0 0 0 0 0 0 0 0 0 0 0 0 0 0 0 0 0 0 0 0 0 0 0 0 0 0 0 0 0 0 0 0 0 0 0 0 0 0 0
0 0 0 0 0 -0 0 0 0 0 0 0 0 0 0 0 0 0 0 0 0 0 0 0 0 0 0 0 0 0 0 0 0 0 0 0 0 0 0 0 0 0 0 0
0 -0 0 0 -0 0 0 0 0 0 0 0 0 0 0 0 0 0 0 0 0 0 0 0 0 0 0 0 0 0 0 0 0 0 0 0 0 0 0 0 0 0 0 0
0 0 0 0 0 0 0 0 0 0 0 0 0 0 0 0 0 0 0 0 0 0 0 0 0 0 0 0 0 0 0 0 0 0 0 0 0 0 0 0 0 0 0 0
0 0 0 0 0 0 0 0 0 0 0 0 0 0 0 0 0 0 0 -0 0 0 0 0 0 0 0 0 0 0 0 0 0 0 0 0 0 0 0 0 0 0 0 0
Wind_Speed_500mb
4 7 9 9 9 16 11 11 11 9 15 17 32 23 40 42 46 53 49 46 46 35 29 28 27 23 16 13 14 13 7 8 8 11 3 5 6 4 6 12 15 19 20 20
6 7 2 5 8 8 5 7 3 1 16 8 40 41 34 41 40 41 49 43 33 27 16 23 28 23 19 18 19 20 19 11 6 9 10 7 6 3 6 7 8 10 12 16
4 2 1 8 6 6 2 3 5 6 11 11 18 25 40 42 29 30 33 31 29 22 18 16 22 24 25 26 29 28 29 27 25 21 17 12 6 9 6 6 5 5 8 11
5 6 3 13 10 3 15 5 14 9 4 23 26 28 38 20 26 33 36 30 29 22 21 25 21 24 25 23 24 21 28 34 34 32 26 19 15 14 12 10 6 5 4 5
8 7 8 4 8 7 5 6 7 10 13 32 41 30 11 15 21 28 40 32 26 25 23 21 21 23 25 26 25 23 24 34 40 42 35 27 24 21 20 14 8 5 4 5
3 8 9 9 14 26 6 7 6 12 26 37 42 9 8 30 28 35 31 31 30 27 24 20 17 19 17 18 18 18 25 33 43 48 39 30 30 30 27 20 11 8 7 8
5 2 10 5 27 26 5 11 3 15 21 33 6 4 32 35 33 29 32 32 27 21 17 14 12 7 10 8 6 4 9 26 42 52 48 37 34 32 29 22 14 9 5 7
5 6 11 23 16 8 8 12 25 31 21 22 20 31 40 39 35 33 27 20 16 14 11 7 2 4 7 5 7 2 7 17 35 53 54 51 43 41 36 25 14 10 8 13
7 8 10 19 2 7 16 28 25 38 33 28 40 48 45 38 29 23 17 14 11 7 5 3 4 5 3 5 3 4 8 15 29 41 42 42 50 49 42 30 18 13 13 15
4 7 8 13 7 21 25 32 36 40 38 41 55 57 51 39 29 16 9 13 15 11 7 7 9 8 6 6 6 6 1 12 20 27 35 33 28 29 25 20 15 16 18 21
3 2 9 2 15 29 38 40 41 39 38 42 44 44 39 34 23 13 12 13 12 9 7 10 14 15 15 12 9 7 11 13 15 18 24 24 23 22 18 20 16 14 19 18
8 13 9 8 16 11 19 25 32 35 37 36 34 43 41 35 25 22 25 24 22 16 14 15 16 17 17 15 16 13 16 21 22 23 22 20 19 22 23 21 22 22 21 16
8 9 11 12 15 14 14 17 18 21 29 42 35 30 26 26 22 25 28 27 21 20 20 20 18 21 22 21 19 21 23 28 31 30 30 27 23 17 17 22 21 19 21 24
16 20 11 17 9 16 19 17 17 25 27 26 28 23 18 22 28 28 32 26 21 24 24 21 21 27 31 32 32 36 39 42 43 41 38 37 34 29 24 17 18 22 25 26
15 8 7 14 19 25 23 25 30 35 35 31 21 14 17 29 29 28 27 27 24 24 27 33 37 39 43 41 40 42 45 43 39 37 34 32 33 31 32 30 25 19 23 28
13 9 8 9 17 27 31 38 33 35 35 33 27 24 28 30 32 31 31 33 32 38 38 37 40 43 43 41 36 35 35 32 27 23 20 17 18 19 19 19 19 17 15 22
20 18 24 22 26 27 39 37 30 31 35 31 28 30 34 33 35 40 40 35 33 37 41 46 44 40 36 32 30 29 27 21 15 10 5 4 3 4 7 6 7 9 14 20
41 35 28 29 26 29 44 50 40 36 33 25 26 32 39 40 42 40 41 45 43 44 49 46 41 35 31 27 24 24 23 17 13 9 13 9 9 9 13 12 7 5 12 20
49 47 35 31 31 30 34 52 46 36 34 32 31 32 34 37 44 45 44 43 50 52 48 41 34 25 18 17 19 22 22 23 23 21 21 21 15 9 13 15 14 10 6 14
35 48 41 33 25 25 29 40 33 34 35 37 37 35 38 37 42 46 49 48 41 35 30 25 21 18 13 16 25 26 26 29 34 35 32 31 25 18 18 18 18 18 15 8
21 36 41 33 24 27 29 32 37 37 37 42 39 36 38 41 48 46 47 49 40 21 23 27 27 25 17 14 13 21 18 18 24 25 31 35 35 29 25 21 24 23 26 24
11 37 43 32 33 33 29 29 28 26 32 37 37 39 40 47 50 42 39 41 37 34 29 26 25 17 18 16 19 22 25 27 25 22 23 34 37 37 38 35 36 33 32 32
13 41 41 33 29 27 23 16 24 23 26 30 35 42 44 53 54 51 46 43 40 38 16 14 12 14 10 11 17 21 25 23 17 17 22 23 26 33 42 52 52 50 44 39
26 43 48 42 22 9 36 20 20 26 24 30 31 32 46 54 48 46 43 34 35 27 17 13 14 15 20 26 24 30 31 27 21 19 17 21 28 39 38 44 46 56 57 50
33 41 40 37 29 44 37 32 31 27 27 29 33 40 49 48 46 35 32 25 32 26 19 22 24 20 10 16 22 20 20 19 16 18 16 24 29 26 23 25 31 36 39 47
43 46 45 43 48 48 43 31 28 26 29 39 53 52 44 37 36 28 35 33 32 25 18 16 17 13 7 13 16 18 17 12 13 19 24 25 27 29 28 25 28 30 32 40
54 54 54 48 39 34 30 30 37 52 51 46 38 25 24 39 18 25 21 14 11 8 10 4 5 8 15 21 19 19 23 22 22 25 30 32 30 28 30 33 36 37 40 44
Wind_Direction_500mb
275 180 188 175 129 153 180 186 149 270 211 198 193 178 178 174 186 180 173 172 177 181 181 209 222 222 196 213 197 204 214 61 62 18 5 333 343 52 86 103 85 81 77 76
89 344 222 139 112 166 228 169 232 314 262 176 152 168 174 178 187 169 176 172 165 177 185 222 226 225 228 225 223 221 219 218 244 285 311 287 272 245 136 129 96 80 75 74
202 309 71 11 138 126 284 293 208 220 228 133 157 165 181 189 197 177 176 175 173 178 169 193 215 237 244 241 244 238 226 225 224 230 243 242 245 191 165 157 142 126 106 99
177 46 87 241 285 260 121 350 306 291 192 172 157 150 171 170 165 180 172 172 181 197 214 228 230 246 259 260 256 251 242 230 232 230 233 231 200 187 170 168 163 159 132 106
132 151 270 298 36 17 297 249 204 128 110 126 124 129 168 180 182 183 187 180 191 204 208 228 248 262 264 266 260 255 249 234 229 228 222 225 211 198 192 184 174 168 169 154
110 138 194 237 301 317 269 266 180 166 147 144 140 149 195 195 198 198 195 192 201 200 211 234 247 252 264 277 271 260 233 222 220 218 223 234 224 212 201 192 196 202 195 171
133 195 283 282 304 317 161 244 224 125 143 152 92 206 183 192 185 189 185 183 194 207 213 227 237 273 311 306 326 301 242 227 222 211 217 221 230 213 205 201 209 217 212 189
92 114 263 4 326 137 175 228 171 154 135 133 125 136 150 162 161 163 174 188 205 215 208 202 148 23 13 64 49 309 236 228 219 213 213 213 212 205 199 197 213 213 203 192
164 218 318 327 292 74 169 153 170 172 163 162 147 144 147 148 154 160 172 177 170 177 165 128 100 88 108 102 113 195 205 214 219 210 199 206 203 192 191 187 197 189 187 188
106 306 310 330 113 109 141 140 152 174 172 169 156 157 155 158 153 151 155 157 148 137 122 112 116 115 112 96 77 75 61 215 210 203 194 188 188 175 174 168 170 189 184 177
54 278 312 246 136 117 128 131 141 149 157 166 163 157 164 167 177 186 163 147 128 116 115 133 123 110 94 82 83 109 146 154 156 161 162 163 163 145 141 144 148 160 149 156
210 200 211 220 187 155 139 137 149 152 152 160 167 160 163 155 156 156 154 158 151 142 158 139 122 118 114 99 94 114 123 118 120 125 126 130 140 141 136 136 139 142 139 139
167 185 219 166 159 167 179 165 168 160 155 154 158 159 162 161 154 154 155 156 144 147 147 139 137 121 113 116 117 118 122 119 116 110 107 103 102 109 135 134 138 141 139 138
143 128 136 186 212 180 171 180 189 175 157 158 157 153 157 156 149 158 157 152 148 151 148 146 141 130 125 120 120 118 115 114 108 103 100 97 95 94 95 103 125 133 134 136
199 225 267 243 223 195 195 189 173 168 165 160 157 170 173 157 154 157 152 148 149 163 157 146 138 129 123 120 118 114 116 116 110 103 97 94 89 87 88 86 88 108 134 141
216 234 230 235 198 203 200 184 185 174 172 170 167 161 165 159 160 160 158 158 159 154 147 144 138 134 134 130 128 123 124 123 118 114 108 108 105 97 84 81 73 80 128 151
229 229 233 218 212 213 208 213 222 204 185 181 171 161 161 167 166 163 163 162 156 154 152 147 143 144 146 141 137 140 143 144 150 169 182 234 228 175 154 130 81 98 137 152
248 257 268 253 230 226 219 215 213 205 196 190 177 172 168 172 169 165 167 156 155 154 153 150 150 150 154 161 164 164 178 187 197 209 209 237 297 281 261 237 212 201 199 192
244 245 253 235 237 253 229 214 205 202 195 193 185 181 173 171 169 162 163 166 159 155 156 159 160 163 173 187 202 210 209 217 229 248 263 261 268 275 262 257 226 226 245 218
242 228 238 236 248 226 205 209 214 197 197 194 188 176 177 178 168 166 165 165 166 160 162 169 181 186 194 222 217 227 249 255 248 252 262 256 257 269 267 247 225 235 242 244
270 216 219 223 238 219 197 201 196 196 195 198 193 187 181 179 172 174 174 179 181 184 187 175 176 180 186 201 204 206 226 258 265 275 251 256 256 257 253 254 238 242 237 250
251 198 205 211 209 193 194 194 197 202 200 192 195 197 188 184 184 186 194 201 185 158 177 180 177 208 227 243 240 253 270 278 267 252 239 248 254 260 254 253 245 244 241 246
198 192 198 190 177 168 158 177 188 195 188 190 197 197 198 190 188 186 177 174 169 177 214 191 181 182 218 257 285 291 282 286 262 245 240 242 258 268 268 262 254 247 245 246
163 170 162 148 121 122 161 186 205 178 186 195 197 202 190 174 173 179 174 168 171 185 176 193 209 230 269 282 291 289 283 285 249 242 259 276 296 302 282 265 260 251 249 248
149 161 163 155 174 172 186 172 163 169 180 183 186 182 172 171 179 169 184 184 160 167 193 231 251 270 277 334 338 325 311 293 253 236 273 290 311 287 291 278 264 255 255 251
127 129 128 138 142 147 149 155 163 167 170 155 142 142 138 141 131 131 143 156 185 210 218 233 218 219 301 340 349 343 323 310 272 272 275 275 277 289 293 290 282 275 266 260
114 115 116 119 125 133 141 146 144 142 137 131 124 131 150 139 144 180 199 209 211 235 279 244 267 284 304 307 297 306 308 299 314 314 299 295 287 280 282 286 289 290 290 287
Wind_Speed_850mb
4 7 9 9 9 16 11 11 11 9 15 17 32 23 40 42 46 53 49 46 46 35 29 28 27 23 16 13 14 13 7 8 8 11 3 5 6 4 6 12 15 19 20 20
6 7 2 5 8 8 5 7 3 1 16 8 40 41 34 41 40 41 49 43 33 27 16 23 28 23 19 18 19 20 19 11 6 9 10 7 6 3 6 7 8 10 12 16
4 2 1 8 6 6 2 3 5 6 11 11 18 25 40 42 29 30 33 31 29 22 18 16 22 24 25 26 29 28 29 27 25 21 17 12 6 9 6 6 5 5 8 11
5 6 3 13 10 3 15 5 14 9 4 23 26 28 38 20 26 33 36 30 29 22 21 25 21 24 25 23 24 21 28 34 34 32 26 19 15 14 12 10 6 5 4 5
8 7 8 4 8 7 5 6 7 10 13 32 41 30 11 15 21 28 40 32 26 25 23 21 21 23 25 26 25 23 24 34 40 42 35 27 24 21 20 14 8 5 4 5
3 8 9 9 14 26 6 7 6 12 26 37 42 9 8 30 28 35 31 31 30 27 24 20 17 19 17 18 18 18 25 33 43 48 39 30 30 30 27 20 11 8 7 8
5 2 10 5 27 26 5 11 3 15 21 33 6 4 32 35 33 29 32 32 27 21 17 14 12 7 10 8 6 4 9 26 42 52 48 37 34 32 29 22 14 9 5 7
5 6 11 23 16 8 8 12 25 31 21 22 20 31 40 39 35 33 27 20 16 14 11 7 2 4 7 5 7 2 7 17 35 53 54 51 43 41 36 25 14 10 8 13
7 8 10 19 2 7 16 28 25 38 33 28 40 48 45 38 29 23 17 14 11 7 5 3 4 5 3 5 3 4 8 15 29 41 42 42 50 49 42 30 18 13 13 15
4 7 8 13 7 21 25 32 36 40 38 41 55 57 51 39 29 16 9 13 15 11 7 7 9 8 6 6 6 6 1 12 20 27 35 33 28 29 25 20 15 16 18 21
3 2 9 2 15 29 38 40 41 39 38 42 44 44 39 34 23 13 12 13 12 9 7 10 14 15 15 12 9 7 11 13 15 18 24 24 23 22 18 20 16 14 19 18
8 13 9 8 16 11 19 25 32 35 37 36 34 43 41 35 25 22 25 24 22 16 14 15 16 17 17 15 16 13 16 21 22 23 22 20 19 22 23 21 22 22 21 16
8 9 11 12 15 14 14 17 18 21 29 42 35 30 26 26 22 25 28 27 21 20 20 20 18 21 22 21 19 21 23 28 31 30 30 27 23 17 17 22 21 19 21 24
16 20 11 17 9 16 19 17 17 25 27 26 28 23 18 22 28 28 32 26 21 24 24 21 21 27 31 32 32 36 39 42 43 41 38 37 34 29 24 17 18 22 25 26
15 8 7 14 19 25 23 25 30 35 35 31 21 14 17 29 29 28 27 27 24 24 27 33 37 39 43 41 40 42 45 43 39 37 34 32 33 31 32 30 25 19 23 28
13 9 8 9 17 27 31 38 33 35 35 33 27 24 28 30 32 31 31 33 32 38 38 37 40 43 43 41 36 35 35 32 27 23 20 17 18 19 19 19 19 17 15 22
20 18 24 22 26 27 39 37 30 31 35 31 28 30 34 33 35 40 40 35 33 37 41 46 44 40 36 32 30 29 27 21 15 10 5 4 3 4 7 6 7 9 14 20
41 35 28 29 26 29 44 50 40 36 33 25 26 32 39 40 42 40 41 45 43 44 49 46 41 35 31 27 24 24 23 17 13 9 13 9 9 9 13 12 7 5 12 20
49 47 35 31 31 30 34 52 46 36 34 32 31 32 34 37 44 45 44 43 50 52 48 41 34 25 18 17 19 22 22 23 23 21 21 21 15 9 13 15 14 10 6 14
35 48 41 33 25 25 29 40 33 34 35 37 37 35 38 37 42 46 49 48 41 35 30 25 21 18 13 16 25 26 26 29 34 35 32 31 25 18 18 18 18 18 15 8
21 36 41 33 24 27 29 32 37 37 37 42 39 36 38 41 48 46 47 49 40 21 23 27 27 25 17 14 13 21 18 18 24 25 31 35 35 29 25 21 24 23 26 24
11 37 43 32 33 33 29 29 28 26 32 37 37 39 40 47 50 42 39 41 37 34 29 26 25 17 18 16 19 22 25 27 25 22 23 34 37 37 38 35 36 33 32 32
13 41 41 33 29 27 23 16 24 23 26 30 35 42 44 53 54 51 46 43 40 38 16 14 12 14 10 11 17 21 25 23 17 17 22 23 26 33 42 52 52 50 44 39
26 43 48 42 22 9 36 20 20 26 24 30 31 32 46 54 48 46 43 34 35 27 17 13 14 15 20 26 24 30 31 27 21 19 17 21 28 39 38 44 46 56 57 50
33 41 40 37 29 44 37 32 31 27 27 29 33 40 49 48 46 35 32 25 32 26 19 22 24 20 10 16 22 20 20 19 16 18 16 24 29 26 23 25 31 36 39 47
43 46 45 43 48 48 43 31 28 26 29 39 53 52 44 37 36 28 35 33 32 25 18 16 17 13 7 13 16 18 17 12 13 19 24 25 27 29 28 25 28 30 32 40
54 54 54 48 39 34 30 30 37 52 51 46 38 25 24 39 18 25 21 14 11 8 10 4 5 8 15 21 19 19 23 22 22 25 30 32 30 28 30 33 36 37 40 44
Wind_Direction_850mb
275 180 188 175 129 153 180 186 149 270 211 198 193 178 178 174 186 180 173 172 177 181 181 209 222 222 196 213 197 204 214 61 62 18 5 333 343 52 86 103 85 81 77 76
89 344 222 139 112 166 228 169 232 314 262 176 152 168 174 178 187 169 176 172 165 177 185 222 226 225 228 225 223 221 219 218 244 285 311 287 272 245 136 129 96 80 75 74
202 309 71 11 138 126 284 293 208 220 228 133 157 165 181 189 197 177 176 175 173 178 169 193 215 237 244 241 244 238 226 225 224 230 243 242 245 191 165 157 142 126 106 99
177 46 87 241 285 260 121 350 306 291 192 172 157 150 171 170 165 180 172 172 181 197 214 228 230 246 259 260 256 251 242 230 232 230 233 231 200 187 170 168 163 159 132 106
132 151 270 298 36 17 297 249 204 128 110 126 124 129 168 180 182 183 187 180 191 204 208 228 248 262 264 266 260 255 249 234 229 228 222 225 211 198 192 184 174 168 169 154
110 138 194 237 301 317 269 266 180 166 147 144 140 149 195 195 198 198 195 192 201 200 211 234 247 252 264 277 271 260 233 222 220 218 223 234 224 212 201 192 196 202 195 171
133 195 283 282 304 317 161 244 224 125 143 152 92 206 183 192 185 189 185 183 194 207 213 227 237 273 311 306 326 301 242 227 222 211 217 221 230 213 205 201 209 217 212 189
92 114 263 4 326 137 175 228 171 154 135 133 125 136 150 162 161 163 174 188 205 215 208 202 148 23 13 64 49 309 236 228 219 213 213 213 212 205 199 197 213 213 203 192
164 218 318 327 292 74 169 153 170 172 163 162 147 144 147 148 154 160 172 177 170 177 165 128 100 88 108 102 113 195 205 214 219 210 199 206 203 192 191 187 197 189 187 188
106 306 310 330 113 109 141 140 152 174 172 169 156 157 155 158 153 151 155 157 148 137 122 112 116 115 112 96 77 75 61 215 210 203 194 188 188 175 174 168 170 189 184 177
54 278 312 246 136 117 128 131 141 149 157 166 163 157 164 167 177 186 163 147 128 116 115 133 123 110 94 82 83 109 146 154 156 161 162 163 163 145 141 144 148 160 149 156
210 200 211 220 187 155 139 137 149 152 152 160 167 160 163 155 156 156 154 158 151 142 158 139 122 118 114 99 94 114 123 118 120 125 126 130 140 141 136 136 139 142 139 139
167 185 219 166 159 167 179 165 168 160 155 154 158 159 162 161 154 154 155 156 144 147 147 139 137 121 113 116 117 118 122 119 116 110 107 103 102 109 135 134 138 141 139 138
143 128 136 186 212 180 171 180 189 175 157 158 157 153 157 156 149 158 157 152 148 151 148 146 141 130 125 120 120 118 115 114 108 103 100 97 95 94 95 103 125 133 134 136
199 225 267 243 223 195 195 189 173 168 165 160 157 170 173 157 154 157 152 148 149 163 157 146 138 129 123 120 118 114 116 116 110 103 97 94 89 87 88 86 88 108 134 141
216 234 230 235 198 203 200 184 185 174 172 170 167 161 165 159 160 160 158 158 159 154 147 144 138 134 134 130 128 123 124 123 118 114 108 108 105 97 84 81 73 80 128 151
229 229 233 218 212 213 208 213 222 204 185 181 171 161 161 167 166 163 163 162 156 154 152 147 143 144 146 141 137 140 143 144 150 169 182 234 228 175 154 130 81 98 137 152
248 257 268 253 230 226 219 215 213 205 196 190 177 172 168 172 169 165 167 156 155 154 153 150 150 150 154 161 164 164 178 187 197 209 209 237 297 281 261 237 212 201 199 192
244 245 253 235 237 253 229 214 205 202 195 193 185 181 173 171 169 162 163 166 159 155 156 159 160 163 173 187 202 210 209 217 229 248 263 261 268 275 262 257 226 226 245 218
242 228 238 236 248 226 205 209 214 197 197 194 188 176 177 178 168 166 165 165 166 160 162 169 181 186 194 222 217 227 249 255 248 252 262 256 257 269 267 247 225 235 242 244
270 216 219 223 238 219 197 201 196 196 195 198 193 187 181 179 172 174 174 179 181 184 187 175 176 180 186 201 204 206 226 258 265 275 251 256 256 257 253 254 238 242 237 250
251 198 205 211 209 193 194 194 197 202 200 192 195 197 188 184 184 186 194 201 185 158 177 180 177 208 227 243 240 253 270 278 267 252 239 248 254 260 254 253 245 244 241 246
198 192 198 190 177 168 158 177 188 195 188 190 197 197 198 190 188 186 177 174 169 177 214 191 181 182 218 257 285 291 282 286 262 245 240 242 258 268 268 262 254 247 245 246
163 170 162 148 121 122 161 186 205 178 186 195 197 202 190 174 173 179 174 168 171 185 176 193 209 230 269 282 291 289 283 285 249 242 259 276 296 302 282 265 260 251 249 248
149 161 163 155 174 172 186 172 163 169 180 183 186 182 172 171 179 169 184 184 160 167 193 231 251 270 277 334 338 325 311 293 253 236 273 290 311 287 291 278 264 255 255 251
127 129 128 138 142 147 149 155 163 167 170 155 142 142 138 141 131 131 143 156 185 210 218 233 218 219 301 340 349 343 323 310 272 272 275 275 277 289 293 290 282 275 266 260
114 115 116 119 125 133 141 146 144 142 137 131 124 131 150 139 144 180 199 209 211 235 279 244 267 284 304 307 297 306 308 299 314 314 299 295 287 280 282 286 289 290 290 287